Flag for Morocco Weather past 2 weeks in Casablanca, Morocco

Now
63 °F

Passing clouds.


Feels Like: 63 °F
Forecast: 58 / 71 °F
Wind: 5 mph from North

Location: Casablanca Airport


UV Index: 5 (Moderate)

Visibility: N/A


Pressure: 29.98 "Hg

Humidity: 73%

Dew point: 54 °F

Location of CasablancaLocation

Historic Weather in Casablanca

°F

Casablanca temperature yesterday

Maximum temperature yesterday: 68 °F (at 2:00 PM)
Minimum temperature yesterday: 63 °F (at 6:00 AM)
Average temperature yesterday: 65 °F

Past Weeks' High & Low Weather Summary

 TemperatureHumidityPressure
High90 °F (Apr 8, 7:00 PM)100% (Apr 6, 7:00 AM)30.21 "Hg (Apr 6, 7:00 AM)
Low48 °F (Apr 4, 6:00 AM)35% (Apr 9, 11:00 AM)29.80 "Hg (Apr 13, 7:00 PM)
Average66 °F75%29.99 "Hg
* Reported Apr 4 1:00 AM — Apr 19 1:00 AM, Casablanca, Weather by CustomWeather, © 2014

Note: Actual official high and low records may vary slightly from our data, if they occured in-between our weather recording intervals... More about our weather records

Advertising

Historic Weather Conditions — Data for Previous 24 hours

 ConditionsComfort  
Time TempWeatherWind HumidityBarometerVisibility
1:00 AM
Apr 19
63 °FPassing clouds.5 mph73%29.98 "HgN/A
12:00 AM63 °FPassing clouds.2 mph73%29.98 "HgN/A
11:00 PM
Apr 18
63 °FPassing clouds.7 mph68%29.98 "HgN/A
10:00 PM63 °FPassing clouds.5 mph73%29.98 "HgN/A
9:00 PM64 °FPassing clouds.9 mph68%29.95 "HgN/A
8:00 PM64 °FPassing clouds.9 mph73%29.95 "HgN/A
7:00 PM64 °FPartly sunny.9 mph73%29.95 "HgN/A
6:00 PM66 °FPartly sunny.9 mph68%29.98 "HgN/A
5:00 PM66 °FPartly sunny.7 mph68%29.98 "HgN/A
4:00 PM68 °FPartly sunny.7 mph64%29.98 "HgN/A
3:00 PM68 °FPartly sunny.9 mph64%30.01 "HgN/A
2:00 PM68 °FPartly sunny.7 mph64%30.01 "HgN/A
1:00 PM66 °FPartly sunny.7 mph73%30.01 "HgN/A
12:00 PM66 °FPartly sunny.5 mph73%30.01 "HgN/A
11:00 AM66 °FPartly sunny.7 mph68%30.01 "HgN/A
10:00 AM66 °FPartly sunny.2 mph64%30.01 "HgN/A
9:00 AM64 °FPartly sunny.2 mph68%30.01 "HgN/A
8:00 AM63 °FPartly sunny.2 mph73%30.01 "HgN/A
7:00 AM63 °FPartly sunny.2 mph73%30.01 "HgN/A
6:00 AM63 °FPartly sunny.6 mph73%30.01 "HgN/A
Weather by CustomWeather, © 2014

See weather overview